Airfield :
LOGIN :

Register | Disclaimer

   EN    FR    IT 

 










Legend :    VFR   Marginal VFR   IFR   Intensive IFR   Very Intensive IFR
Visi :
Ceiling :
>= 8 km
>= 3000ft
5 to 8 km
1000 to 3000 ft
1500m to 5 km
500 to 1000 ft
800 to 1500m
200 to 500 ft
< 800m
< 200 ft
Symbols :   Thunderstorms  Fog  Heavy snow  Heavy precipitations  Wind > 20 kt
SIGMETs :     Misc.  Thunderstorms  Icing  Turbulence  Mountain Waves  Volcanic Ashes







- Airport Elevation : 776 ft
- IATA code : RMS


ETAR - Ramstein Air Base

CURRENT METAR :
  • 152356Z AUTO 00000KT 9999 CLR 11/11 A3012 RMK AO2 VIS 1200 RWY09 SLP199 T01080108 10214 20103 55001 $

EXPIRED METARs :
  • 152256Z AUTO 00000KT 9999 CLR 12/12 A3012 RMK AO2 SLP198 T01180118 402390100 $
  • 152156Z AUTO 00000KT 9999 CLR 12/12 A3012 RMK AO2 SLP198 T01180118 $

TAF TAF ETAR
Valid from the 15 at 18:00 until the 17 at 00:00 UTC


151810Z 1518/1624 VRB06KT 9999 SCT045 QNH3001INS
BECMG 1607/1608 18009KT 9999 FEW050 QNH2991INS TX25/1615Z TN13/1604Z
No reported NOTAMs for that airfield.



MET'MAP, your aeronautical weather chart ! - Copyright ORBIFLY December 2007 - Disclaimer

ORBIFLY MET'MAP TEAM :

Programming & Development : Alexandra Zaïnal
Concept & Development : Baudouin d'Aumeries
Co-Development & Prog : Marc-Olivier Méhu
Technical & hardware support : Manuel Goepfert

Contact : metmap@orbifly.com




SOURCES & CREDITS :

   NOAA